{"data":{"norad_id":56110,"epoch":"2026-09-19T23:32:20.459904Z","epoch_age_seconds":153441,"freshness":"FRESH","line1":"1 56110U 23046T   26262.98079236 -.00000649  00000+0 -14058-4 0  9992","line2":"2 56110  43.0033 144.4796 0000897 273.1354  86.9395 15.27572307191743","mean_motion":15.27572307,"eccentricity":8.97e-5,"inclination_deg":43.0033,"raan_deg":144.4796,"arg_perigee_deg":273.1354,"mean_anomaly_deg":86.9395,"bstar":-1.4058e-5,"rev_number":19174,"period_min":94.267223449999,"perigee_km":482.45668128675,"apogee_km":483.68758220499,"semimajor_km":6861.2091317459,"source":"CELESTRAK","updated_at":"2026-09-21T09:00:33.383774Z"}}